Temperature
24 23 22 22 24 26 26 27 27 27 27 26 26 25 24 24 23 21 20 20 20 19 19 19 19 19 19 18 18 19 19 19 18 18 18 18 18 18 18 18 18 18 18 18 18 18 18 18 18
23 23 23 24 26 26 26 28 27 27 27 26 26 25 24 23 22 21 20 20 20 19 19 19 19 19 19 19 19 19 19 19 19 19 18 18 18 18 18 18 18 18 18 18 18 18 18 18 18
23 23 25 27 28 27 27 28 28 28 27 26 26 25 24 22 22 21 20 20 20 19 19 19 19 19 19 19 18 18 19 19 19 19 19 18 18 18 18 18 18 18 18 18 18 18 18 18 18
23 26 28 29 29 29 29 29 29 28 28 27 26 24 23 22 21 21 21 21 20 19 19 20 19 19 19 19 19 19 19 19 19 19 19 18 18 18 18 18 18 18 18 18 18 18 18 18 18
25 28 29 29 29 30 30 30 29 28 28 26 25 24 22 22 21 21 21 21 21 20 20 20 20 19 19 19 19 19 19 19 19 19 19 19 18 18 18 18 18 18 18 18 18 18 18 18 18
28 30 30 29 30 30 30 30 29 28 28 26 25 24 22 22 21 21 21 21 21 20 20 20 20 20 19 19 19 19 19 19 19 19 19 19 19 18 18 18 18 18 18 18 18 18 18 18 18
30 31 31 30 30 30 30 30 29 29 28 27 26 24 22 22 21 21 21 21 21 20 20 20 20 20 19 19 19 19 19 19 19 19 19 19 19 18 18 18 18 18 18 18 18 18 18 18 18
31 32 31 31 30 30 30 30 29 29 28 27 26 25 23 22 22 21 21 21 21 21 20 20 19 19 19 19 19 19 19 19 19 19 19 19 18 18 18 18 18 18 18 18 18 18 18 18 18
33 32 31 31 30 30 31 30 29 29 28 27 26 25 23 23 22 22 21 21 21 21 20 20 20 20 19 19 19 19 19 19 19 19 19 19 18 18 18 18 18 18 18 18 18 18 18 18 18
34 32 32 32 32 31 31 30 30 29 28 26 25 24 23 23 23 22 22 21 21 21 20 20 20 20 20 19 19 19 19 19 19 19 18 18 18 18 18 18 18 18 18 18 18 18 18 18 18
34 32 33 33 32 32 31 31 30 29 28 27 25 24 24 23 23 23 22 22 21 21 21 20 20 20 20 19 19 19 19 19 19 19 19 19 19 18 18 18 18 18 18 18 18 18 18 18 18
34 33 33 33 32 32 32 31 30 29 28 27 26 25 24 24 24 23 22 22 21 21 21 20 20 20 19 19 19 19 19 19 19 19 19 19 19 19 18 18 18 18 18 18 18 18 18 18 18
33 33 33 32 32 32 32 31 30 29 28 27 26 25 25 24 24 23 23 22 21 21 21 20 20 20 19 19 19 19 19 19 19 19 19 19 19 18 18 18 18 18 18 18 18 18 18 18 18
34 33 33 33 33 32 32 31 30 29 28 27 26 26 25 25 24 23 23 22 22 21 21 20 20 20 19 19 19 19 19 19 19 19 19 19 18 18 18 18 18 18 18 18 18 18 18 18 18
34 33 33 33 33 33 32 31 31 30 29 28 27 26 26 25 24 23 23 22 22 21 21 20 20 20 20 19 19 19 19 19 19 19 19 18 18 18 18 18 18 18 18 18 18 18 18 18 18
34 33 32 33 34 33 32 30 31 30 29 28 28 27 26 25 24 24 23 22 22 21 21 20 20 20 20 20 19 19 19 19 19 19 19 18 18 18 18 18 18 18 18 18 18 18 18 18 18
33 32 32 32 34 34 33 31 31 30 30 29 28 27 26 25 25 24 23 23 22 21 21 20 20 20 20 20 19 19 19 19 19 19 19 18 18 18 18 18 18 18 18 18 18 18 18 18 18
33 33 33 32 34 34 33 32 32 31 31 30 29 28 27 26 25 24 24 23 22 21 21 20 20 20 20 19 19 19 19 19 19 19 19 19 18 18 18 18 18 18 18 18 18 18 18 18 18
34 34 33 33 34 33 33 32 32 32 31 30 29 28 27 26 25 25 24 23 22 21 21 20 20 20 20 20 19 19 19 19 19 19 19 19 19 18 18 18 18 18 18 18 18 18 18 18 18
34 33 33 33 34 33 33 32 33 33 32 31 30 29 28 27 26 25 24 23 22 22 21 21 20 20 20 20 20 19 19 19 19 19 19 19 19 18 18 18 18 18 18 18 18 18 18 18 18
34 34 33 33 33 33 32 31 32 32 32 31 31 30 29 27 26 25 24 23 23 22 21 21 21 20 20 20 20 20 19 19 19 19 19 19 18 18 18 18 18 18 18 18 18 18 18 18 18
33 34 34 33 32 32 32 30 31 31 32 32 31 30 29 28 27 25 24 24 23 22 22 21 21 21 20 20 20 20 19 19 19 19 19 19 18 18 18 18 18 18 18 18 18 18 18 18 18
34 34 34 33 33 32 33 31 31 32 31 32 32 31 30 29 27 26 25 24 23 23 22 21 21 21 21 20 20 20 19 19 19 19 19 19 19 18 18 18 18 18 18 18 18 18 18 18 18
35 34 33 33 32 31 32 32 31 32 32 32 32 31 30 29 28 26 25 24 23 23 22 22 21 21 21 20 20 20 20 19 19 19 19 19 19 19 18 18 18 18 18 18 18 18 18 18 18
34 32 31 30 30 31 33 32 32 33 33 33 32 32 31 29 28 27 26 25 24 23 23 22 22 21 21 20 20 20 20 19 19 19 19 19 19 19 19 18 18 18 18 18 18 18 18 18 18
33 32 30 30 30 31 33 32 32 34 34 33 33 32 31 30 29 27 26 25 24 24 23 22 22 21 21 20 20 20 20 20 19 19 19 19 19 19 19 19 18 18 18 18 18 18 17 17 17
33 33 33 32 31 31 32 32 32 33 33 33 33 32 31 30 29 28 27 26 25 24 23 23 22 21 21 21 20 20 20 20 19 19 19 19 19 19 19 19 18 18 18 18 18 18 18 17 17
35 34 33 32 30 30 31 31 31 31 32 33 32 32 31 30 29 28 27 26 25 24 24 23 22 22 21 21 21 20 20 20 20 20 19 19 19 19 19 19 18 18 18 18 18 18 17 17 17
34 34 33 32 31 30 30 30 33 32 32 33 32 31 31 30 29 28 27 26 25 25 24 23 22 22 21 21 21 20 20 20 20 20 19 19 19 19 19 18 18 18 18 18 17 17 17 17 17
34 34 33 31 30 31 30 30 33 33 33 33 32 31 30 30 29 27 26 26 25 25 24 23 22 22 21 21 21 20 20 20 19 19 19 19 19 19 19 18 18 18 18 18 17 17 17 17 17
Wind_Speed
11 11 9 4 2 4 14 14 14 13 13 13 13 12 14 14 10 9 5 5 9 10 10 11 11 11 12 11 11 11 11 11 11 12 12 12 12 12 12 12 12 13 14 14 14 14 14 15 16
11 12 8 3 0 10 14 13 14 13 12 13 14 15 16 15 12 9 6 7 9 11 11 11 11 11 11 11 11 11 11 11 11 12 12 13 13 12 12 13 13 14 14 14 14 13 13 15 15
11 12 6 2 9 13 13 13 13 13 12 13 13 14 11 11 11 7 7 9 10 11 13 12 12 12 11 11 11 11 11 10 11 11 12 12 12 12 12 13 13 13 13 13 13 14 13 14 14
7 6 3 6 15 16 14 12 12 12 12 12 12 12 12 12 9 9 9 9 11 13 14 13 12 12 11 11 11 11 10 10 10 11 11 11 11 12 12 13 13 13 13 14 14 13 13 14 13
9 2 4 12 16 14 13 13 13 13 15 16 16 15 14 12 11 10 9 8 10 13 13 13 12 11 10 10 10 10 10 10 10 10 10 11 11 11 12 12 12 13 13 13 14 13 13 12 12
5 2 6 12 15 15 13 13 14 14 15 16 16 15 11 10 10 9 8 7 9 11 12 12 12 11 11 10 9 9 9 9 9 9 10 10 10 11 11 11 11 11 12 12 13 13 12 11 11
4 2 10 14 14 14 13 13 13 13 13 13 14 13 10 9 9 9 7 7 9 10 10 10 11 10 10 9 9 8 9 8 9 9 9 9 10 10 11 11 10 11 12 12 12 11 11 11 10
2 4 11 13 13 15 13 13 13 14 12 11 11 10 10 10 9 9 8 8 8 8 8 8 8 9 9 9 8 7 7 7 7 8 9 9 9 9 10 11 10 11 11 12 11 11 10 9 8
2 5 11 13 13 13 13 14 15 14 14 15 15 15 14 13 12 9 8 8 7 7 6 7 7 6 7 9 9 7 6 5 5 6 7 6 6 8 8 10 11 10 10 10 10 9 9 8 7
6 10 14 13 12 12 14 14 13 13 15 16 15 15 14 12 11 9 8 8 8 6 6 6 6 5 5 6 7 6 6 5 5 5 4 4 5 6 9 10 10 10 9 9 9 8 8 7 5
12 13 13 12 12 12 13 12 12 13 14 14 14 13 12 11 9 9 8 8 8 6 6 7 7 5 5 5 4 3 4 5 5 6 5 5 4 5 7 5 6 7 7 5 8 6 5 5 4
12 12 11 11 11 12 12 12 13 14 15 15 14 13 11 10 9 8 9 9 8 7 7 7 7 6 5 4 3 3 3 3 4 5 5 4 3 3 4 3 3 4 4 4 4 3 3 4 4
11 12 10 10 10 12 13 13 14 15 15 15 14 12 10 10 9 9 9 9 8 7 8 7 6 6 5 3 1 3 4 3 5 5 5 4 3 3 3 2 2 3 4 4 3 4 3 3 3
8 10 10 9 10 11 13 12 13 14 15 14 12 11 10 10 10 9 9 8 7 7 8 7 6 6 4 2 2 2 4 4 4 4 5 5 4 4 2 2 2 3 4 4 3 5 4 2 3
8 9 8 7 9 10 11 10 11 13 14 13 11 10 10 10 9 9 8 8 7 7 7 7 7 7 4 2 2 3 3 4 3 5 6 5 5 4 2 2 2 3 4 4 4 4 3 3 3
7 7 7 6 8 9 6 10 11 12 12 12 11 10 10 9 9 9 9 7 7 8 6 4 5 7 5 3 2 2 3 3 4 4 5 5 5 4 2 2 2 3 3 3 3 3 3 3 3
7 6 8 5 5 7 6 10 12 12 11 11 10 10 10 10 9 9 9 9 8 8 7 4 4 5 5 4 2 3 2 2 3 4 4 4 4 4 3 2 3 3 2 2 3 4 3 3 3
6 6 7 6 5 6 7 9 12 12 11 11 11 10 10 10 9 10 9 9 9 8 7 5 4 4 4 3 2 2 2 2 3 4 4 4 3 3 2 3 3 2 2 3 3 3 3 2 2
4 2 4 5 4 4 6 8 11 12 10 11 11 10 10 10 11 10 9 10 10 8 7 5 5 4 2 2 1 2 2 2 2 3 5 4 3 2 2 3 3 2 3 3 3 2 3 3 2
4 3 3 4 5 4 5 5 7 11 11 10 11 11 11 10 11 11 9 8 10 9 7 6 5 5 3 3 2 1 2 2 3 3 4 4 3 2 2 3 2 2 3 2 2 1 1 1 2
6 4 3 4 3 4 4 4 6 8 9 10 10 11 12 12 12 11 11 9 10 10 8 7 6 5 4 3 3 2 2 1 2 4 3 3 3 3 2 3 2 1 2 2 2 1 1 1 1
5 3 3 4 5 5 6 3 6 8 9 11 11 11 11 12 12 12 11 10 10 10 9 7 7 5 4 3 2 3 3 2 3 3 3 3 2 3 3 2 2 1 1 1 2 2 1 2 1
5 3 4 6 8 8 6 3 6 10 10 11 11 11 11 12 13 13 12 10 10 10 10 9 8 6 5 3 3 2 2 2 3 3 3 3 2 2 2 2 2 1 0 1 0 0 0 1 1
5 5 7 7 9 8 6 4 5 7 9 9 10 11 12 12 13 13 12 11 10 10 10 10 9 7 6 5 4 3 2 1 2 2 2 2 2 2 2 2 2 1 1 1 1 0 1 1 1
8 7 6 7 8 7 6 4 3 6 8 9 10 11 12 12 13 13 13 12 11 10 10 10 10 8 7 6 5 5 4 3 3 2 2 1 2 2 1 1 1 1 1 1 1 1 1 1 2
9 9 8 7 6 4 5 4 5 5 6 8 11 11 11 12 12 13 13 13 12 11 10 10 10 9 8 7 5 4 4 4 2 2 1 1 1 2 2 2 1 1 1 1 1 1 2 2 3
10 11 12 10 10 6 4 4 6 7 8 8 10 11 11 11 12 12 12 13 13 12 11 11 11 9 8 7 6 5 5 3 2 2 2 1 1 2 2 2 1 1 1 1 1 2 2 1 2
12 11 8 8 6 8 4 5 5 9 8 8 8 9 9 10 12 12 10 10 10 11 11 11 11 10 9 8 7 7 6 4 3 2 2 1 1 0 2 2 1 1 1 1 1 2 2 2 2
11 11 8 6 6 8 5 2 3 6 7 8 9 9 9 7 9 10 9 9 9 10 11 11 11 10 9 8 7 5 6 6 5 4 3 3 2 2 1 1 1 1 1 2 2 2 2 2 2
11 11 10 8 6 8 7 2 5 4 5 7 8 9 8 7 8 9 9 8 8 7 8 9 10 10 9 8 7 6 6 6 6 5 4 4 4 3 3 3 2 2 2 2 2 2 2 2 2
Wind_Direction
189 202 211 231 248 84 70 69 68 65 67 64 62 67 63 57 66 89 103 101 99 95 94 88 74 71 73 67 68 71 71 71 74 75 79 84 87 91 92 93 97 101 104 108 111 115 119 126 131
207 212 218 240 94 75 70 73 74 71 75 77 69 69 71 69 79 97 102 99 102 101 94 86 81 74 71 67 70 72 73 73 77 80 81 87 88 88 88 94 98 102 104 103 108 113 119 128 131
236 239 243 195 67 72 75 76 83 83 83 82 76 63 64 78 83 99 109 112 106 98 94 90 86 78 72 68 69 71 74 76 80 84 86 88 90 88 91 97 99 104 107 106 106 109 112 124 129
239 230 217 81 74 75 81 86 91 89 84 79 81 75 73 77 91 104 114 110 105 101 96 95 91 82 73 67 68 71 76 79 83 86 88 91 93 92 94 96 97 102 107 109 107 111 111 118 123
241 246 107 84 82 81 83 84 83 84 82 81 84 90 88 87 97 103 105 104 104 103 104 104 99 89 81 73 70 73 79 84 87 92 95 97 97 98 97 99 100 104 108 110 111 109 116 121 125
245 188 94 84 85 83 86 91 90 89 93 98 96 95 91 99 101 99 99 100 101 105 106 109 106 99 92 84 80 82 86 92 94 97 100 105 107 105 100 98 101 105 111 114 115 115 118 125 130
235 102 90 89 88 84 83 90 92 94 94 98 104 101 105 105 104 103 101 100 98 103 110 117 120 114 105 97 94 101 95 99 103 107 111 113 117 115 109 104 105 110 115 119 120 122 124 130 137
214 98 91 93 92 88 88 89 90 93 89 100 106 104 118 126 121 114 113 106 100 99 107 110 116 127 126 120 116 114 109 110 116 124 129 128 126 124 120 113 110 115 121 125 129 130 130 135 142
137 86 81 87 92 101 104 96 90 94 91 80 82 103 122 129 121 115 113 106 100 101 106 109 108 122 126 122 124 133 126 125 133 131 139 139 130 131 129 122 125 124 126 132 137 140 141 144 149
95 80 80 88 98 104 102 102 106 101 95 92 93 105 120 127 127 126 123 116 109 107 108 101 89 92 99 99 117 124 119 121 115 107 118 131 122 123 119 131 139 135 132 135 146 152 156 156 151
84 85 90 95 99 103 105 109 109 105 105 109 114 119 125 127 125 123 118 112 114 117 104 96 87 74 76 85 98 104 106 109 103 90 84 86 89 100 107 132 142 142 144 142 138 154 148 141 137
90 89 93 99 103 104 102 101 93 93 103 115 122 127 130 131 124 116 117 120 121 113 102 96 92 82 69 68 81 102 101 101 95 87 80 87 84 77 92 102 116 132 123 118 118 113 102 106 110
97 102 101 103 106 103 100 95 97 103 112 118 123 128 131 125 122 123 124 119 119 117 108 99 93 80 73 62 51 95 94 92 96 90 81 77 77 73 78 76 71 97 99 107 109 100 82 77 80
113 110 114 117 118 117 110 108 109 115 123 125 130 134 133 124 126 124 124 123 128 125 116 118 113 102 87 84 64 80 99 94 100 104 93 90 93 89 81 83 86 89 101 104 106 111 104 91 87
134 126 128 133 136 131 122 113 118 127 132 135 137 137 131 128 125 127 126 132 132 121 116 126 126 120 115 95 82 101 100 109 100 97 88 83 94 105 101 81 94 99 102 101 92 96 109 115 98
175 158 139 150 154 155 146 121 133 142 145 144 145 142 139 137 136 134 134 136 130 123 118 122 123 123 124 109 73 59 71 79 88 96 101 94 90 94 105 101 101 114 116 116 116 106 107 98 92
197 180 145 157 174 152 147 133 143 151 150 147 149 151 151 147 146 142 144 144 135 128 129 127 106 118 124 125 122 116 98 78 80 86 91 100 99 93 109 105 105 127 120 114 116 110 115 122 120
200 180 142 149 159 148 132 133 147 158 159 155 156 157 158 155 155 152 152 145 139 136 132 129 125 113 126 136 136 121 113 104 101 94 87 82 91 89 98 106 107 113 101 92 92 114 123 130 146
238 172 130 132 148 159 138 145 159 163 164 159 159 160 161 160 157 152 150 147 143 139 133 131 132 128 129 109 112 118 122 118 113 110 106 103 91 84 75 91 97 91 99 111 122 127 147 157 143
233 191 154 146 161 167 147 149 163 165 170 164 163 163 158 154 153 151 152 156 149 144 143 146 146 146 154 147 157 146 124 133 129 105 106 110 99 82 91 102 118 119 122 121 138 154 161 178 157
240 218 193 182 175 187 179 171 170 171 170 167 166 165 163 162 160 159 164 164 159 156 157 156 149 150 160 159 158 141 134 154 111 113 121 118 118 104 72 80 81 117 136 147 167 168 180 205 211
247 262 240 229 229 231 212 200 177 182 180 175 171 170 168 165 163 163 167 166 165 163 160 149 149 151 158 164 171 175 155 149 128 129 130 130 113 114 113 101 89 43 88 133 184 173 214 205 234
250 277 277 260 263 256 227 210 181 178 181 178 173 171 170 166 165 165 167 166 167 168 162 155 150 154 162 170 162 182 160 155 137 137 139 140 135 123 120 121 123 138 156 145 116 80 237 254 264
256 253 254 255 255 251 245 227 172 173 176 173 171 171 168 166 163 162 164 162 169 170 165 160 153 157 164 173 171 170 175 151 132 140 141 163 148 140 120 131 130 144 159 135 140 255 220 261 296
235 252 251 241 238 237 224 225 145 151 153 161 170 169 164 165 165 164 165 166 170 170 167 158 154 161 169 175 176 172 178 182 185 194 166 184 144 126 103 111 120 153 161 166 180 200 233 234 256
228 236 249 265 260 241 218 204 143 140 150 154 154 156 161 165 166 166 167 169 172 171 167 161 156 163 170 173 174 174 180 197 185 180 189 170 102 112 131 142 149 166 205 202 175 220 225 213 233
236 234 245 259 269 263 214 172 151 154 160 161 157 159 167 164 160 165 171 170 171 172 170 165 158 162 168 172 170 175 186 197 189 163 184 185 177 165 143 146 152 169 192 226 193 231 245 213 232
248 254 250 252 271 276 232 201 175 160 167 165 167 163 156 161 164 162 160 160 164 168 166 164 163 166 171 176 183 183 181 185 192 186 182 184 156 112 149 161 178 189 206 225 230 235 229 214 224
229 242 252 275 276 272 277 285 140 163 174 169 168 159 156 160 153 149 150 152 156 160 162 162 164 166 172 179 184 180 176 180 183 190 188 191 188 181 167 188 196 205 220 224 229 237 232 222 230
244 247 251 251 258 275 278 252 137 156 171 161 154 150 151 159 151 144 144 147 149 156 160 163 166 171 175 175 176 182 179 181 185 187 184 188 189 189 193 194 197 213 218 217 225 246 245 230 231
Height
1472 1472 1472 1476 1476 1476 1479 1476 1474 1476 1478 1481 1482 1483 1487 1490 1495 1507 1508 1506 1506 1506 1505 1504 1504 1503 1503 1502 1502 1502 1501 1501 1501 1501 1501 1501 1501 1501 1501 1502 1502 1503 1504 1505 1507 1509 1511 1513 1515
1471 1472 1476 1475 1476 1483 1485 1477 1477 1479 1481 1483 1485 1487 1490 1495 1500 1505 1507 1508 1508 1507 1506 1506 1505 1505 1504 1504 1503 1503 1503 1503 1503 1503 1503 1503 1503 1503 1503 1504 1504 1505 1507 1508 1510 1511 1513 1515 1517
1471 1474 1475 1471 1472 1481 1485 1477 1478 1480 1483 1485 1488 1491 1495 1501 1504 1506 1508 1509 1509 1509 1508 1507 1507 1506 1506 1505 1505 1505 1504 1504 1504 1505 1505 1505 1505 1506 1506 1506 1507 1508 1509 1511 1512 1514 1515 1516 1519
1473 1473 1472 1470 1476 1475 1476 1477 1478 1481 1484 1486 1489 1495 1501 1505 1506 1508 1509 1510 1511 1510 1509 1509 1508 1508 1507 1507 1506 1506 1506 1506 1506 1506 1507 1507 1508 1508 1508 1509 1510 1511 1512 1514 1515 1516 1518 1519 1522
1474 1472 1470 1473 1475 1474 1474 1477 1480 1483 1486 1490 1494 1500 1505 1508 1509 1510 1511 1512 1512 1512 1511 1511 1510 1509 1509 1508 1508 1507 1507 1507 1508 1508 1509 1510 1510 1511 1511 1512 1513 1514 1515 1517 1518 1519 1521 1523 1524
1472 1467 1472 1479 1477 1475 1476 1479 1482 1485 1489 1493 1497 1502 1508 1511 1511 1512 1513 1513 1514 1514 1513 1513 1512 1511 1511 1510 1510 1509 1509 1509 1510 1510 1511 1512 1513 1514 1514 1515 1516 1517 1518 1519 1521 1522 1524 1526 1527
1469 1466 1471 1475 1478 1479 1479 1481 1484 1487 1490 1493 1497 1502 1509 1512 1513 1513 1514 1515 1516 1516 1515 1515 1514 1514 1513 1513 1512 1512 1512 1512 1512 1513 1514 1514 1516 1517 1517 1518 1518 1519 1520 1522 1523 1525 1527 1528 1530
1465 1464 1470 1474 1479 1482 1481 1483 1485 1488 1492 1495 1497 1503 1509 1513 1514 1515 1516 1517 1517 1518 1518 1518 1517 1516 1515 1515 1515 1515 1515 1515 1515 1516 1517 1517 1518 1519 1520 1521 1521 1522 1523 1524 1526 1528 1529 1530 1532
1464 1467 1474 1475 1479 1482 1482 1484 1489 1491 1494 1497 1500 1504 1509 1512 1515 1516 1517 1518 1519 1519 1520 1520 1520 1519 1519 1518 1518 1518 1518 1518 1518 1519 1520 1521 1521 1522 1523 1524 1524 1525 1526 1527 1528 1530 1531 1533 1534
1463 1471 1474 1473 1476 1479 1482 1485 1489 1492 1497 1501 1505 1508 1511 1513 1515 1516 1518 1519 1520 1520 1521 1522 1521 1521 1521 1521 1521 1521 1520 1520 1521 1521 1522 1523 1524 1525 1526 1527 1527 1528 1528 1529 1530 1532 1533 1534 1536
1466 1471 1473 1475 1477 1480 1483 1486 1489 1492 1498 1503 1507 1510 1512 1514 1516 1517 1518 1520 1521 1522 1522 1523 1523 1523 1523 1523 1523 1523 1523 1523 1524 1524 1524 1525 1526 1527 1528 1528 1529 1530 1530 1531 1532 1533 1534 1536 1537
1470 1472 1474 1476 1479 1481 1483 1486 1490 1494 1500 1504 1508 1511 1513 1515 1516 1518 1519 1521 1522 1523 1524 1524 1524 1524 1524 1525 1525 1525 1525 1526 1526 1526 1527 1527 1528 1529 1529 1530 1531 1532 1532 1533 1534 1535 1536 1538 1539
1473 1475 1478 1479 1481 1483 1486 1489 1493 1498 1502 1506 1509 1512 1513 1515 1517 1519 1520 1522 1523 1524 1524 1525 1525 1525 1525 1526 1526 1527 1527 1527 1528 1528 1528 1529 1530 1530 1531 1531 1532 1533 1534 1535 1536 1537 1538 1539 1541
1475 1476 1479 1480 1482 1484 1487 1491 1495 1500 1503 1507 1510 1512 1514 1516 1518 1519 1521 1522 1523 1524 1525 1526 1526 1526 1526 1527 1527 1528 1529 1529 1530 1530 1530 1531 1531 1531 1532 1533 1533 1534 1535 1537 1538 1539 1540 1541 1542
1475 1477 1480 1479 1481 1483 1486 1493 1495 1499 1503 1507 1509 1512 1514 1516 1518 1520 1521 1523 1524 1525 1526 1527 1527 1527 1528 1528 1529 1530 1530 1531 1531 1531 1531 1532 1532 1533 1533 1534 1535 1536 1537 1538 1539 1540 1541 1543 1544
1473 1478 1485 1480 1477 1480 1487 1500 1495 1499 1502 1505 1508 1511 1514 1516 1518 1520 1522 1523 1524 1525 1526 1527 1529 1528 1529 1529 1530 1531 1532 1532 1533 1533 1533 1533 1534 1534 1535 1536 1536 1537 1538 1539 1540 1541 1542 1543 1544
1476 1483 1486 1482 1474 1475 1482 1493 1493 1496 1500 1503 1507 1510 1513 1516 1518 1520 1522 1523 1524 1526 1527 1528 1529 1529 1530 1530 1531 1532 1532 1533 1534 1534 1534 1535 1535 1536 1536 1537 1537 1539 1540 1541 1541 1542 1543 1544 1545
1481 1479 1480 1483 1475 1475 1481 1487 1490 1494 1497 1501 1505 1509 1511 1514 1517 1519 1521 1523 1524 1526 1527 1528 1529 1530 1531 1531 1532 1533 1533 1534 1534 1535 1535 1536 1536 1537 1537 1538 1538 1539 1540 1541 1542 1543 1543 1544 1545
1468 1473 1480 1478 1474 1477 1481 1485 1486 1490 1493 1497 1502 1506 1510 1513 1516 1518 1521 1523 1524 1525 1527 1528 1529 1530 1531 1532 1532 1533 1534 1535 1535 1536 1536 1536 1537 1537 1538 1539 1539 1540 1540 1541 1542 1543 1544 1545 1545
1469 1477 1478 1476 1472 1476 1482 1484 1483 1486 1490 1494 1498 1503 1507 1511 1515 1517 1520 1522 1523 1525 1526 1527 1528 1529 1531 1532 1533 1534 1535 1535 1536 1536 1537 1537 1537 1538 1538 1539 1539 1540 1540 1541 1542 1543 1543 1545 1546
1470 1473 1476 1479 1476 1476 1483 1490 1486 1485 1488 1492 1495 1500 1504 1508 1512 1515 1518 1521 1523 1524 1525 1527 1528 1529 1530 1532 1533 1534 1535 1536 1537 1537 1537 1537 1537 1538 1538 1539 1539 1540 1540 1541 1542 1542 1543 1544 1545
1477 1467 1470 1475 1483 1487 1483 1502 1490 1485 1486 1488 1492 1497 1501 1505 1509 1513 1516 1519 1521 1523 1524 1526 1527 1529 1530 1531 1533 1534 1535 1536 1537 1537 1537 1537 1538 1538 1538 1538 1539 1539 1540 1541 1541 1541 1542 1543 1544
1470 1466 1470 1474 1480 1485 1481 1493 1492 1482 1486 1485 1488 1493 1498 1502 1506 1510 1514 1517 1520 1522 1523 1525 1526 1528 1529 1530 1532 1533 1535 1536 1536 1537 1537 1537 1537 1538 1538 1538 1538 1539 1539 1540 1540 1540 1541 1542 1543
1465 1469 1473 1475 1482 1498 1484 1490 1494 1481 1481 1481 1484 1489 1495 1500 1504 1508 1512 1515 1518 1520 1522 1524 1525 1526 1528 1529 1531 1532 1533 1535 1535 1536 1537 1537 1537 1537 1537 1537 1538 1538 1538 1538 1539 1539 1540 1541 1541
1468 1482 1497 1505 1504 1497 1476 1483 1486 1472 1472 1477 1482 1486 1492 1497 1502 1506 1510 1513 1516 1519 1521 1522 1523 1525 1527 1528 1530 1531 1532 1533 1534 1535 1536 1536 1536 1536 1537 1537 1537 1536 1537 1537 1538 1538 1539 1539 1540
1470 1478 1501 1511 1506 1492 1478 1486 1477 1469 1471 1474 1479 1484 1489 1495 1499 1503 1507 1511 1514 1516 1519 1521 1522 1524 1525 1527 1528 1529 1531 1532 1533 1534 1534 1535 1535 1535 1535 1536 1535 1535 1536 1536 1536 1537 1537 1538 1538
1470 1472 1470 1483 1488 1493 1487 1480 1473 1467 1470 1474 1478 1482 1487 1492 1497 1501 1505 1508 1511 1514 1517 1519 1520 1522 1524 1526 1527 1528 1529 1531 1532 1533 1533 1534 1534 1534 1534 1534 1534 1534 1535 1535 1535 1536 1536 1536 1537
1460 1462 1470 1482 1501 1505 1492 1487 1483 1476 1473 1473 1476 1480 1485 1490 1494 1499 1503 1506 1509 1512 1515 1517 1519 1521 1523 1524 1526 1527 1528 1529 1530 1531 1532 1532 1533 1533 1533 1533 1533 1533 1534 1534 1534 1534 1535 1535 1535
1464 1466 1469 1476 1482 1498 1505 1495 1467 1471 1470 1471 1475 1480 1485 1489 1492 1496 1501 1504 1508 1510 1513 1516 1518 1520 1521 1523 1524 1526 1527 1528 1528 1529 1530 1531 1531 1532 1532 1532 1531 1532 1532 1532 1533 1533 1533 1533 1534
1458 1462 1467 1483 1489 1486 1495 1494 1464 1466 1468 1470 1474 1479 1484 1488 1492 1496 1500 1503 1506 1510 1513 1515 1517 1518 1520 1521 1523 1524 1525 1526 1527 1528 1528 1529 1529 1530 1530 1530 1530 1530 1531 1531 1531 1531 1532 1532 1532